We konden geen weer-waarchuwingen ophalen. Ga rechtstreeks naar de Meteoalarm site : www.meteoalarm.eu en controleer daar .



Onweer radar Meer informatie blitzortung!


Regen radar Meer informatie rain snow radar


Bezoek onze andere website:

Template documentation
and downloads

And another site



15 daagse weersverwachting Yverdon-les-Bains (CH)

  • Overzicht
  • Per uur
  • 15 dagen
  • Extra
  • Vergelijk
  • Kaarten
  • Dagkaart
  • Meer »
  • Info
  • Statistieken
  • Directe link
    Temp 6h Neerslag Wind  
 06:35     20:40    Daglengte: 14:05 Vandaag
14:00
26°
 
2
20:00
22°
 
2
warningclass
 06:37     20:38    Daglengte: 14:01 Morgen
02:00
18°
3.0 mm
2
08:00
18°
 
1
14:00
23°
 
1
20:00
21°
6.2 mm
3
warningclass
 06:38     20:37    Daglengte: 13:59 Vrijdag 19 Aug
02:00
18°
 
1
08:00
17°
5.4 mm
1
14:00
22°
3.4 mm
1
20:00
21°
 
2
 06:39     20:35    Daglengte: 13:56 Zaterdag 20 Aug
02:00
16°
 
1
08:00
17°
5.9 mm
1
Locatie info
Region: Jura-Nord Vaudois
Latitude: 46.7786°N
Longitude: 6.6414°E
438 masl
Postcode: 1400
Temp/Neerslag /Baro Onweer/Dauwpunt
    Temp Baro 1h Neerslag Dauwpunt Wind UV Bewolking  
 06:35     20:40    Daglengte: 14:05 Vandaag
13:00
26°
1011.2 hPa
46%
10.2°
1
Windvlaag: 3.5 m/s
48%
14:00
26°
1010.8 hPa
38%
10.0°
2
Windvlaag: 2.9 m/s
51%
15:00
26°
1010.5 hPa
82%
12.7°
2
Windvlaag: 3.1 m/s
53%
16:00
25°
1010.6 hPa
82%
15.4°
2
Windvlaag: 2.7 m/s
53%
17:00
25°
1010.3 hPa
41%
14.8°
2
Windvlaag: 2.3 m/s
49%
18:00
25°
1010.2 hPa
82%
15.4°
1
Windvlaag: 0.6 m/s
59%
19:00
24°
1010.1 hPa
36%
15.9°
1
Windvlaag: -2.3 m/s
74%
20:00
22°
1010.8 hPa
82%
15.9°
2
Windvlaag: -2.6 m/s
82% warningclass
21:00
21°
1011.7 hPa
82%
16.6°
2
Windvlaag: -2.9 m/s
83%
22:00
20°
1012.6 hPa 0.5 mm
82%
15.9°
1
Windvlaag: -2.2 m/s
85%
23:00
19°
1013.3 hPa 0.9 mm
82%
14.3°
1
Windvlaag: 3.4 m/s
83%
 06:37     20:38    Daglengte: 14:01 Morgen
00:00
19°
1013.5 hPa 0.9 mm
82%
14.2°
1
Windvlaag: 1.7 m/s
82%
01:00
18°
1013.2 hPa 0.6 mm
82%
15.1°
1
Windvlaag: -0.3 m/s
79%
02:00
18°
1012.4 hPa
79%
14.9°
2
Windvlaag: 0.2 m/s
77%
03:00
18°
1012.2 hPa
81%
14.8°
1
Windvlaag: -0 m/s
75%
04:00
18°
1011.8 hPa
82%
14.7°
1
Windvlaag: -0.2 m/s
78%
05:00
18°
1011.4 hPa
82%
14.5°
1
Windvlaag: -0.1 m/s
79%
06:00
17°
1011.3 hPa
82%
14.3°
1
Windvlaag: -0.3 m/s
77%
07:00
18°
1011.5 hPa
67%
14.4°
1
Windvlaag: -0.1 m/s
43%
08:00
18°
1011.9 hPa
17%
15.0°
1
Windvlaag: -0.7 m/s
42%
09:00
19°
1011.9 hPa
74%
15.6°
1
Windvlaag: -0.8 m/s
55%
10:00
20°
1012.1 hPa
21%
16.4°
1
Windvlaag: 0.7 m/s
73%
11:00
21°
1012.1 hPa
25%
17.3°
2
Windvlaag: 2.6 m/s
68%
12:00
22°
1012.0 hPa
36%
16.8°
2
Windvlaag: 2.9 m/s
75%
13:00
23°
1011.7 hPa
78%
13.7°
1
Windvlaag: 2.9 m/s
70%
14:00
23°
1011.3 hPa
46%
13.1°
1
Windvlaag: 2.6 m/s
64%
15:00
23°
1010.9 hPa 0.5 mm
82%
17.2°
2
Windvlaag: 3.6 m/s
53%
16:00
22°
1010.7 hPa 0.9 mm
82%
17.3°
2
Windvlaag: 3.8 m/s
68% warningclass
17:00
22°
1010.5 hPa 1.9 mm
82%
15.9°
1
Windvlaag: 0.7 m/s
73%
18:00
22°
1010.5 hPa 1.2 mm
82%
16.0°
2
Windvlaag: -1.3 m/s
64%
19:00
21°
1010.9 hPa 0.9 mm
82%
17.6°
2
Windvlaag: -2.4 m/s
64% warningclass
20:00
21°
1011.1 hPa 0.7 mm
80%
17.7°
3
Windvlaag: -3.2 m/s
65% warningclass
21:00
20°
1011.5 hPa
76%
17.4°
3
Windvlaag: -2.9 m/s
66%
22:00
20°
1011.8 hPa
35%
17.2°
1
Windvlaag: -2.4 m/s
70%
23:00
19°
1012.1 hPa
31%
17.0°
1
Windvlaag: 0.2 m/s
73%
 06:38     20:37    Daglengte: 13:59 Vrijdag 19 Aug
00:00
19°
1012.4 hPa
34%
16.6°
1
Windvlaag: 0.4 m/s
74%
01:00
19°
1012.5 hPa
76%
17.0°
1
Windvlaag: -1.1 m/s
82%
02:00
18°
1012.3 hPa
82%
16.6°
1
Windvlaag: -1.8 m/s
83%
03:00
18°
1012.3 hPa 1.0 mm
82%
16.2°
1
Windvlaag: -1.6 m/s
84%
04:00
18°
1012.4 hPa 1.1 mm
82%
16.2°
1
Windvlaag: -1.3 m/s
84%
05:00
17°
1013.2 hPa 1.7 mm
100%
15.7°
1
Windvlaag: -1.1 m/s
97%
06:00
17°
1013.7 hPa 1.6 mm
100%
15.8°
1
Windvlaag: -1.1 m/s
95%
07:00
17°
1014.3 hPa
100%
15.8°
1
Windvlaag: 0.1 m/s
88%
08:00
17°
1014.9 hPa
96%
15.6°
1
Windvlaag: -1.2 m/s
59%
09:00
18°
1015.4 hPa
50%
16.2°
1
Windvlaag: -1.4 m/s
38%
10:00
19°
1015.8 hPa
96%
17.3°
1
Windvlaag: -1.9 m/s
61%
11:00
20°
1016.3 hPa
86%
18.3°
1
Windvlaag: -2.1 m/s
73%
12:00
21°
1016.7 hPa 3.4 mm
84%
18.8°
1
Windvlaag: -1.6 m/s
35%
13:00
21°
1016.7 hPa
75%
20.5°
1
Windvlaag: -3.7 m/s
22%
14:00
22°
1016.6 hPa
25%
20.5°
1
Windvlaag: -3.7 m/s
51%
15:00
23°
1016.5 hPa
23%
20.5°
1
Windvlaag: -3.4 m/s
59%
16:00
23°
1016.5 hPa
22%
19.9°
2
Windvlaag: -2.8 m/s
36%
17:00
23°
1016.3 hPa
29%
19.3°
2
Windvlaag: -2.6 m/s
22%
18:00
23°
1016.4 hPa
25%
18.7°
2
Windvlaag: -3.5 m/s
39%
19:00
23°
1016.7 hPa
24%
18.0°
2
Windvlaag: -2.3 m/s
23%
20:00
21°
1017.1 hPa
21%
17.9°
2
Windvlaag: -2.4 m/s
16%
21:00
20°
1018.0 hPa
21%
17.7°
2
Windvlaag: -3.6 m/s
41%
22:00
19°
1018.5 hPa
21%
16.8°
3
Windvlaag: -4.9 m/s
48%
23:00
18°
1018.8 hPa
21%
15.2°
2
Windvlaag: -4.8 m/s
31%
 06:39     20:35    Daglengte: 13:56 Zaterdag 20 Aug
00:00
18°
1018.9 hPa
21%
13.3°
1
Windvlaag: 7.6 m/s
6%
01:00
17°
1018.9 hPa
21%
13.3°
1
Windvlaag: 9.1 m/s
6%
02:00
16°
1018.9 hPa
21%
13.2°
1
Windvlaag: 8.1 m/s
12%
03:00
16°
1018.8 hPa
22%
13.9°
1
Windvlaag: 6.7 m/s
69%
04:00
16°
1018.7 hPa
27%
14.6°
1
Windvlaag: 2.7 m/s
67%
05:00
16°
1018.6 hPa
77%
15.0°
1
Windvlaag: 1.3 m/s
100%
06:00
16°
1018.7 hPa 5.9 mm
93%
15.4°
1
Windvlaag: 2 m/s
91%
07:00
16°
1019.1 hPa
81%
14.6°
1
Windvlaag: 3.3 m/s
58%
08:00
17°
1019.4 hPa
32%
15.1°
1
Windvlaag: 3.4 m/s
20%
09:00
19°
1019.4 hPa
29%
16.4°
1
Windvlaag: 3.2 m/s
20%
10:00
20°
1019.2 hPa
40%
17.5°
1
Windvlaag: 3.4 m/s
22%
11:00
21°
1019.0 hPa
42%
18.1°
1
Windvlaag: 3.2 m/s
22%
12:00
22°
1018.7 hPa
99%
16.7°
1
Windvlaag: 3.4 m/s
31%
Temp/Neerslag /Baro Onweer/Dauwpunt
    Temp Baro Neerslag Dauwpunt Wind Bewolking  
 06:35     20:40    Daglengte: 14:05 Vandaag
14:00
26°
1010.8 hPa   10.0°
2
51%
17:00
25°
1010.3 hPa   14.8°
2
49%
20:00
22°
1010.8 hPa   15.9°
2
82% warningclass
23:00
19°
1013.3 hPa 1.4 mm 14.3°
1
83%
 06:37     20:38    Daglengte: 14:01 Morgen
02:00
18°
1012.4 hPa 1.5 mm 14.9°
2
77%
05:00
18°
1011.4 hPa   14.5°
1
79%
08:00
18°
1011.9 hPa   15.0°
1
42%
11:00
21°
1012.1 hPa   17.3°
2
68%
14:00
23°
1011.3 hPa   13.1°
1
64%
17:00
22°
1010.5 hPa 3.3 mm 15.9°
1
73%
20:00
21°
1011.1 hPa 2.9 mm 17.7°
3
65% warningclass
23:00
19°
1012.1 hPa   17.0°
1
73%
 06:38     20:37    Daglengte: 13:59 Vrijdag 19 Aug
02:00
18°
1012.3 hPa   16.6°
1
83%
05:00
17°
1013.2 hPa 3.7 mm 15.7°
1
97%
08:00
17°
1014.9 hPa 1.6 mm 15.6°
1
59%
11:00
20°
1016.3 hPa   18.3°
1
73%
14:00
22°
1016.6 hPa 3.4 mm 20.5°
1
51%
17:00
23°
1016.3 hPa   19.3°
2
22%
20:00
21°
1017.1 hPa   17.9°
2
16%
23:00
18°
1018.8 hPa   15.2°
2
31%
 06:39     20:35    Daglengte: 13:56 Zaterdag 20 Aug
02:00
16°
1018.9 hPa   13.2°
1
12%
05:00
16°
1018.6 hPa   15.0°
1
100%
08:00
17°
1019.4 hPa 5.9 mm 15.1°
1
20%
11:00
21°
1019.0 hPa   18.1°
1
22%
14:00
23°
1018.4 hPa   16.8°
2
18%
17:00
23°
1019.2 hPa 27.6 mm 15.9°
3
1%
20:00
20°
1019.6 hPa 28.3 mm 14.4°
1
1%
23:00
16°
1020.9 hPa 28.3 mm 11.4°
1
0%
 06:41     20:33    Daglengte: 13:52 Zondag 21 Aug
02:00
15°
1020.6 hPa 28.3 mm 9.3°
1
0%
05:00
14°
1019.5 hPa 28.3 mm 9.8°
1
0%
08:00
16°
1019.1 hPa 28.3 mm 12.1°
1
1%
11:00
22°
1017.8 hPa 28.3 mm 13.3°
1
1%
14:00
26°
Voelt als: 26.1°
1015.6 hPa 28.3 mm 9.0°
1
1%
17:00
27°
Voelt als: 26.2°
1014.2 hPa 28.3 mm 6.6°
0
1%
20:00
21°
1015.7 hPa 28.3 mm 8.4°
3
1%
23:00
18°
1015.5 hPa 28.3 mm 7.6°
1
1%
 06:42     20:31    Daglengte: 13:49 Maandag 22 Aug
02:00
16°
1015.3 hPa 28.3 mm 7.4°
1
1%
05:00
14°
1015.1 hPa 28.3 mm 7.8°
0
1%
08:00
16°
1015.6 hPa 28.3 mm 9.6°
1
1%
11:00
23°
1014.0 hPa 28.3 mm 9.5°
2
1%
14:00
27°
Voelt als: 26.3°
1012.8 hPa 28.3 mm 7.7°
1
1%
17:00
24°
1012.9 hPa 28.3 mm 8.3°
2
1%
20:00
20°
1013.6 hPa 28.3 mm 9.8°
2
1%
23:00
18°
1014.9 hPa 28.3 mm 9.6°
2
1%
 06:43     20:29    Daglengte: 13:46 Dinsdag 23 Aug
02:00
18°
1015.2 hPa 28.3 mm 10.8°
1
1%
05:00
18°
1015.1 hPa 28.3 mm 12.4°
1
1%
08:00
18°
1016.0 hPa 28.4 mm 13.5°
0
1%
11:00
22°
1015.7 hPa 28.7 mm 13.9°
1
1%
14:00
25°
1014.4 hPa 29.1 mm 12.9°
1
1%
17:00
26°
1013.6 hPa 29.3 mm 12.6°
2
1%
20:00
22°
1014.8 hPa 29.3 mm 15.1°
2
1%
23:00
18°
1016.1 hPa 29.3 mm 15.1°
1
0%
 06:44     20:28    Daglengte: 13:44 Woensdag 24 Aug
02:00
17°
1015.7 hPa 29.3 mm 15.1°
1
1%
05:00
17°
1015.5 hPa 29.3 mm 14.9°
0
1%
08:00
18°
1015.5 hPa 29.3 mm 15.5°
1
1%
11:00
26°
1014.4 hPa   15.6°
1
1%
14:00
30°
Voelt als: 29.1°
1012.8 hPa 58.6 mm 12.8°
1
0%
20:00
22°
1013.6 hPa 59.9 mm 14.4°
2
0%
 06:46     20:26    Daglengte: 13:40 Donderdag 25 Aug
02:00
18°
1016.5 hPa 70.2 mm 17.5°
1
1%
08:00
19°
1017.7 hPa 72.0 mm 16.7°
1
1%
14:00
28°
1016.6 hPa 72.2 mm 14.4°
1
0%
20:00
23°
1016.8 hPa 72.6 mm 15.3°
2
0%
 06:47     20:24    Daglengte: 13:37 Vrijdag 26 Aug
02:00
18°
1018.4 hPa 72.6 mm 15.6°
1
1%
08:00
19°
1018.7 hPa 72.6 mm 15.9°
1
0%
14:00
30°
Voelt als: 29.2°
1016.0 hPa 72.6 mm 13.2°
1
1%
20:00
20°
1017.4 hPa 77.3 mm 14.5°
1
1%
 06:48     20:22    Daglengte: 13:34 Zaterdag 27 Aug
02:00
18°
1018.2 hPa 80.9 mm 13.4°
0
1%
08:00
18°
1018.9 hPa 0.6 mm 15.5°
1
40%
14:00
29°
1017.1 hPa 0.2 mm 16.3°
1
36%
20:00
23°
1017.6 hPa 0.6 mm 17.3°
1
47%
 06:50     20:20    Daglengte: 13:30 Zondag 28 Aug
02:00
18°
1019.5 hPa 0.4 mm 15.1°
1
43%
08:00
18°
1019.9 hPa 0.5 mm 15.2°
1
41%
14:00
30°
1018.3 hPa 0.2 mm 16.0°
1
38%
20:00
23°
1018.5 hPa 0.8 mm 17.2°
1
48%
 06:51     20:18    Daglengte: 13:27 Maandag 29 Aug
02:00
18°
1020.3 hPa 0.8 mm 15.0°
1
42%
08:00
18°
1020.7 hPa 0.6 mm 15.1°
1
39%
14:00
30°
Voelt als: 29.8°
1019.1 hPa 0.2 mm 15.3°
1
35%
20:00
23°
1019.0 hPa 0.9 mm 17.0°
1
42%
 06:52     20:16    Daglengte: 13:24 Dinsdag 30 Aug
02:00
19°
1020.5 hPa 1.3 mm 14.9°
1
43%
08:00
19°
1020.5 hPa 0.5 mm 15.0°
1
55%
14:00
30°
Voelt als: 29.8°
1018.5 hPa 0.3 mm 15.6°
1
36%
20:00
23°
1018.3 hPa 0.9 mm 16.5°
1
52%
 06:53     20:14    Daglengte: 13:21 Woensdag 31 Aug
02:00
18°
1019.7 hPa 0.7 mm 14.5°
1
48%
08:00
18°
1019.3 hPa 0.8 mm 15.0°
1
50%
14:00
27°
1017.9 hPa 1.1 mm 16.5°
1
51%
20:00
22°
1017.8 hPa 1.5 mm 16.8°
1
53%
 06:55     20:12    Daglengte: 13:17 Donderdag 01 Sep
02:00
17°
1019.0 hPa 0.6 mm 14.9°
1
43%
08:00
17°
1018.8 hPa 0.2 mm 14.7°
1
42%
  CAPE Lifted Index Hail Supercell Tornado SRH 3km CL BTM PRES CL TOP PRES Swiss DWD icon SMHI TS
 06:35     20:40    Daglengte: 14:05 Vandaag
13:00 670 J/kg -3.9 K 0 % 0 % 0 % 0 m²/s² 0 0 -3.33 3
14:00 547 J/kg -3.0 K 0 % 0 % 0 % 0 m²/s² 0 0 -2.61 3
15:00 249 J/kg -2.1 K 0 % 0 % 0 % 0 m²/s² 0 0 -0.93 3
16:00 0 J/kg -0.3 K 0 % 0 % 0 % 0 m²/s² 0 0 2.34 3
17:00 1 J/kg 0.0 K 0 % 0 % 0 % 0 m²/s² 0 0 4.32 3
18:00 2 J/kg 0.1 K 0 % 0 % 0 % 0 m²/s² 0 0 4.3 3
19:00 0 J/kg 0.0 K 0 % 0 % 0 % 0 m²/s² 0 0 4.53 3
20:00 0 J/kg -0.7 K 0 % 0 % 0 % 0 m²/s² 0 0 3.29 95
21:00 0 J/kg -0.6 K 0 % 0 % 0 % 0 m²/s² 0 0 3.27 61
22:00 0 J/kg -0.4 K 0 % 0 % 0 % 0 m²/s² 0 0 3.08 61
23:00 0 J/kg 0.7 K 0 % 0 % 0 % 0 m²/s² 0 0 3.82 61
 06:37     20:38    Daglengte: 14:01 Morgen
00:00 0 J/kg 1.7 K 0 % 0 % 0 % 0 m²/s² 0 0 3.53 3
01:00 0 J/kg 2.0 K 0 % 0 % 0 % 0 m²/s² 0 0 3.65 61
02:00 0 J/kg 2.8 K 0 % 0 % 0 % 0 m²/s² 0 0 4.54 61
03:00 0 J/kg 3.5 K 0 % 0 % 0 % 0 m²/s² 0 0 4.76 3
04:00 0 J/kg 2.6 K 0 % 0 % 0 % 0 m²/s² 0 0 3.71 3
05:00 0 J/kg 1.3 K 0 % 0 % 0 % 0 m²/s² 0 0 2.86 61
06:00 0 J/kg 1.1 K 0 % 0 % 0 % 0 m²/s² 0 0 2.6 3
07:00 0 J/kg 0.8 K 0 % 0 % 0 % 0 m²/s² 0 0 2.6 45
08:00 0 J/kg 0.7 K 0 % 0 % 0 % 0 m²/s² 0 0 2.35 45
09:00 0 J/kg 0.8 K 0 % 0 % 0 % 0 m²/s² 0 0 2.39 3
10:00 0 J/kg 0.3 K 0 % 0 % 0 % 0 m²/s² 0 0 2.16 3
11:00 13 J/kg 0.1 K 0 % 0 % 0 % 0 m²/s² 0 0 2.2 3
12:00 4 J/kg 0.1 K 0 % 0 % 0 % 0 m²/s² 0 0 2.35 3
13:00 24 J/kg 0.1 K 0 % 0 % 0 % 0 m²/s² 0 0 2.65 3
14:00 71 J/kg -0.3 K 0 % 0 % 0 % 0 m²/s² 0 0 2.31 3
15:00 257 J/kg -1.2 K 0 % 0 % 0 % 0 m²/s² 0 0 2.01 80
16:00 615 J/kg -3.2 K 0 % 0 % 0 % 0 m²/s² 0 0 -0.8 95
17:00 572 J/kg -2.9 K 0 % 0 % 0 % 0 m²/s² 0 0 -0.2 81
18:00 954 J/kg -4.0 K 0 % 0 % 0 % 0 m²/s² 0 0 -1.93 80
19:00 1026 J/kg -3.6 K 0 % 0 % 0 % 0 m²/s² 0 0 -2.34 80
20:00 1016 J/kg -4.0 K 0 % 0 % 0 % 0 m²/s² 0 0 -3.25 3
21:00 662 J/kg -2.9 K 0 % 0 % 0 % 0 m²/s² 0 0 -2.18 3
22:00 709 J/kg -3.8 K 0 % 0 % 0 % 0 m²/s² 0 0 -2.93 3
23:00 777 J/kg -3.9 K 0 % 0 % 0 % 0 m²/s² 0 0 -3.42 3
 06:38     20:37    Daglengte: 13:59 Vrijdag 19 Aug
00:00 574 J/kg -3.1 K 0 % 0 % 0 % 0 m²/s² 0 0 -1.78 3
01:00 209 J/kg -3.1 K 0 % 0 % 0 % 0 m²/s² 0 0 -2.2 3
02:00 124 J/kg -3.2 K 0 % 0 % 0 % 0 m²/s² 0 0 -2.54 61
03:00 161 J/kg -3.1 K 0 % 0 % 0 % 0 m²/s² 0 0 -2.35 61
04:00 298 J/kg -2.3 K 0 % 0 % 0 % 0 m²/s² 0 0 -2 61
05:00 355 J/kg -2.0 K 0 % 0 % 0 % 0 m²/s² 0 0 -1.55 61
06:00 309 J/kg -2.0 K 0 % 0 % 0 % 0 m²/s² 0 0 -1.52 80
07:00 134 J/kg -0.8 K 0 % 0 % 0 % 0 m²/s² 0 0 -0.8 61
08:00 68 J/kg -0.3 K 0 % 0 % 0 % 0 m²/s² 0 0 -0.3 3
09:00 151 J/kg -0.9 K 0 % 0 % 0 % 0 m²/s² 0 0 -0.81 3
10:00 180 J/kg -0.7 K 0 % 0 % 0 % 0 m²/s² 0 0 -0.7 3
11:00 252 J/kg -1.2 K 0 % 0 % 0 % 0 m²/s² 0 0 -1.17 3
12:00 321 J/kg -0.8 K 0 % 0 % 0 % 0 m²/s² 0 0 -0.68 2
13:00 310 J/kg -0.1 K 0 % 0 % 0 % 0 m²/s² 0 0 -0.07 2
14:00 223 J/kg 0.1 K 0 % 0 % 0 % 0 m²/s² 0 0 0.22 2
15:00 208 J/kg -0.4 K 0 % 0 % 0 % 0 m²/s² 0 0 -0.19 3
16:00 375 J/kg -1.6 K 0 % 0 % 0 % 0 m²/s² 0 0 -1.24 2
17:00 429 J/kg -1.8 K 0 % 0 % 0 % 0 m²/s² 0 0 -0.93 2
18:00 370 J/kg -1.6 K 0 % 0 % 0 % 0 m²/s² 0 0 -0.43 3
19:00 441 J/kg -1.6 K 0 % 0 % 0 % 0 m²/s² 0 0 -0.1 2
20:00 375 J/kg -1.1 K 0 % 0 % 0 % 0 m²/s² 0 0 0.82 1
21:00 342 J/kg -1.2 K 0 % 0 % 0 % 0 m²/s² 0 0 0.33 0
22:00 241 J/kg -0.7 K 0 % 0 % 0 % 0 m²/s² 0 0 1.76 1
23:00 50 J/kg 1.3 K 0 % 0 % 0 % 0 m²/s² 0 0 3.07 1
 06:39     20:35    Daglengte: 13:56 Zaterdag 20 Aug
00:00 7 J/kg 1.3 K 0 % 0 % 0 % 0 m²/s² 0 0 2.62 0
01:00 0 J/kg 1.3 K 0 % 0 % 0 % 0 m²/s² 0 0 2.62 1
02:00 12 J/kg 0.3 K 0 % 0 % 0 % 0 m²/s² 0 0 1.11 2
03:00 95 J/kg 0.0 K 0 % 0 % 0 % 0 m²/s² 0 0 0.3 3
04:00 103 J/kg 0.3 K 0 % 0 % 0 % 0 m²/s² 0 0 0.42 3
05:00 89 J/kg -0.3 K 0 % 0 % 0 % 0 m²/s² 0 0 -0.3 3
06:00 80 J/kg -0.6 K 0 % 0 % 0 % 0 m²/s² 0 0 0.03 61
07:00 49 J/kg -0.5 K 0 % 0 % 0 % 0 m²/s² 0 0 0.46 3
08:00 163 J/kg -0.6 K 0 % 0 % 0 % 0 m²/s² 0 0 0.45 2
09:00 544 J/kg -1.2 K 0 % 0 % 0 % 0 m²/s² 0 0 -0.15 2
10:00 751 J/kg -2.1 K 0 % 0 % 0 % 0 m²/s² 0 0 -0.63 2
11:00 773 J/kg -2.5 K 0 % 0 % 0 % 0 m²/s² 0 0 -0.67 2
12:00 870 J/kg -2.9 K 0 % 0 % 0 % 0 m²/s² 0 0 -0.44 2
Temp Baro Wind Neerslag
  EWN Forecast EWN WRFDA DWD ICON FMI HIRLAM MET Norway GFS
 06:35     20:40    Daglengte: 14:05 Vandaag
14:00 26.2° 1010.8 hPa 1.8 m/s 0.0 mm 24.6° 1012.0 hPa 4.4 m/s 0.5 mm 26.3° 1010.8 hPa 1.6 m/s -1.9 mm 30.1° 1009.2 hPa 0.6 m/s 0.0 mm 27.7° 1010.8 hPa 0.7 m/s
17:00 25.4° 1010.3 hPa 2.0 m/s 0.0 mm 22.3° 1010.6 hPa 2.1 m/s 2.0 mm 25.4° 1010.8 hPa 2.1 m/s 0.2 mm 28.4° 1008.7 hPa 0.8 m/s 0.0 mm 29.0° 1008.0 hPa 2.6 m/s
20:00 22.1° 1010.8 hPa 1.5 m/s 0.0 mm 21.4° 1010.2 hPa 0.2 m/s 2.0 mm 19.8° 1013.1 hPa 0.8 m/s 2.5 mm 25.2° 1009.8 hPa 1.5 m/s 0.0 mm 17.8° 1011.9 hPa 2.9 m/s
23:00 19.1° 1013.3 hPa 1.4 m/s 1.4 mm 18.5° 1011.2 hPa 2.5 m/s 2.0 mm 18.7° 1013.9 hPa 0.7 m/s 1.9 mm 22.0° 1011.1 hPa 2.5 m/s 0.0 mm 16.2° 1015.2 hPa 2.8 m/s
 06:37     20:38    Daglengte: 14:01 Morgen
02:00 18.3° 1012.4 hPa 1.6 m/s 1.5 mm 15.3° 1009.8 hPa 2.8 m/s 2.0 mm 18.4° 1013.1 hPa 1.4 m/s 2.2 mm 21.0° 1010.0 hPa 2.6 m/s 0.0 mm 15.6° 1014.1 hPa 1.2 m/s
05:00 17.5° 1011.4 hPa 1.2 m/s 0.0 mm 14.3° 1010.2 hPa 0.6 m/s 2.0 mm 17.6° 1013.0 hPa 1.1 m/s 0.5 mm 20.1° 1008.8 hPa 2.5 m/s 0.0 mm 15.5° 1013.0 hPa 0.4 m/s
08:00 17.9° 1011.9 hPa 1.1 m/s 0.0 mm 18.7° 1011.1 hPa 1.5 m/s 2.0 mm 17.7° 1012.4 hPa 0.6 m/s 0.3 mm 19.7° 1009.0 hPa 2.3 m/s 0.0 mm 16.0° 1013.7 hPa 0.8 m/s
11:00 20.8° 1012.1 hPa 1.8 m/s 0.0 mm 22.8° 1011.0 hPa 2.9 m/s 2.0 mm 20.7° 1012.6 hPa 1.9 m/s 0.0 mm 22.2° 1009.4 hPa 1.8 m/s 0.0 mm 21.7° 1013.3 hPa 2.2 m/s
14:00 22.9° 1011.3 hPa 1.1 m/s 0.0 mm 25.6° 1008.7 hPa 3.2 m/s 2.0 mm 22.4° 1012.1 hPa 1.2 m/s 0.0 mm 27.3° 1007.5 hPa 0.4 m/s 0.0 mm 25.5° 1011.2 hPa 2.5 m/s
17:00 21.9° 1010.5 hPa 1.2 m/s 3.3 mm 25.3° 1007.5 hPa 4.9 m/s 2.1 mm 20.9° 1011.5 hPa 0.4 m/s 4.4 mm 25.2° 1006.7 hPa 3.0 m/s 0.0 mm 24.6° 1010.3 hPa 3.7 m/s
20:00 20.8° 1011.1 hPa 2.8 m/s 2.9 mm 21.6° 1008.6 hPa 3.8 m/s 4.3 mm 20.9° 1012.1 hPa 0.3 m/s 1.3 mm 22.5° 1007.1 hPa 3.4 m/s 0.0 mm 20.0° 1011.5 hPa 1.3 m/s
23:00 19.4° 1012.1 hPa 1.1 m/s 0.0 mm 20.2° 1010.5 hPa 3.1 m/s 8.8 mm 19.3° 1012.9 hPa 0.3 m/s 0.0 mm 21.5° 1007.8 hPa 4.0 m/s 0.0 mm 17.1° 1014.0 hPa 1.1 m/s
 06:38     20:37    Daglengte: 13:59 Vrijdag 19 Aug
02:00 18.4° 1012.3 hPa 1.1 m/s 0.0 mm 17.2° 1011.1 hPa 0.9 m/s 12.2 mm 18.4° 1013.2 hPa 0.8 m/s 0.2 mm 20.6° 1007.7 hPa 3.0 m/s 0.0 mm 16.5° 1014.0 hPa 1.1 m/s
05:00 17.3° 1013.2 hPa 1.4 m/s 3.7 mm 18.0° 1011.0 hPa 1.9 m/s 12.9 mm 17.3° 1013.3 hPa 1.4 m/s 0.9 mm 15.9° 1013.9 hPa 1.3 m/s
08:00 17.3° 1014.9 hPa 1.4 m/s 1.6 mm 17.3° 1012.1 hPa 1.6 m/s 18.3 mm 17.5° 1015.1 hPa 1.1 m/s 0.3 mm 16.7° 1015.5 hPa 1.4 m/s
11:00 20.3° 1016.3 hPa 0.8 m/s 0.0 mm 18.4° 1014.9 hPa 0.8 m/s 27.2 mm 20.7° 1016.3 hPa 0.6 m/s 0.1 mm 17.9° 1016.9 hPa 1.4 m/s
14:00 22.4° 1016.6 hPa 1.2 m/s 3.4 mm 18.4° 1016.2 hPa 1.4 m/s 34.3 mm 23.2° 1016.6 hPa 0.2 m/s 0.1 mm 23.8° 1016.2 hPa 1.2 m/s
17:00 23.3° 1016.3 hPa 2.4 m/s 0.0 mm 21.5° 1015.2 hPa 4.0 m/s 41.9 mm 23.8° 1016.3 hPa 2.2 m/s 0.0 mm 23.0° 1016.4 hPa 0.9 m/s
20:00 21.5° 1017.1 hPa 1.7 m/s 0.0 mm 21.4° 1016.0 hPa 1.9 m/s 45.6 mm 21.8° 1017.2 hPa 1.1 m/s 0.0 mm 19.6° 1017.9 hPa 1.8 m/s
23:00 18.1° 1018.8 hPa 2.4 m/s 0.0 mm 16.6° 1017.8 hPa 2.4 m/s 46.6 mm 18.1° 1018.9 hPa 0.4 m/s 0.0 mm 17.2° 1019.5 hPa 0.7 m/s
 06:39     20:35    Daglengte: 13:56 Zaterdag 20 Aug
02:00 16.1° 1018.9 hPa 1.2 m/s 0.0 mm 16.1° 1018.3 hPa 2.8 m/s 46.6 mm 16.1° 1019.1 hPa 0.8 m/s 0.0 mm 17.7° 1019.2 hPa 0.7 m/s
05:00 16.2° 1018.6 hPa 0.9 m/s 0.0 mm 17.2° 1018.4 hPa 1.3 m/s 47.4 mm 15.9° 1018.7 hPa 0.7 m/s 0.0 mm 16.2° 1019.3 hPa 1.2 m/s
08:00 16.8° 1019.4 hPa 1.1 m/s 5.9 mm 18.0° 1018.9 hPa 1.8 m/s 51.4 mm 16.5° 1019.6 hPa 0.9 m/s 0.4 mm 17.4° 1019.8 hPa 0.9 m/s
11:00 21.4° 1019.0 hPa 1.4 m/s 0.0 mm 20.5° 1019.0 hPa 1.6 m/s 53.6 mm 21.7° 1019.0 hPa 1.3 m/s 0.0 mm 21.9° 1019.3 hPa 1.1 m/s
14:00 23.4° 1018.4 hPa 2.1 m/s 0.0 mm 23.0° 1018.7 hPa 2.2 m/s 58.0 mm 23.5° 1018.3 hPa 2.1 m/s 0.1 mm 24.6° 1018.6 hPa 3.0 m/s
17:00 22.7° 1019.2 hPa 2.7 m/s 27.6 mm 22.7° 1019.2 hPa 2.7 m/s 27.6 mm
20:00 20.2° 1019.6 hPa 0.9 m/s 28.3 mm 20.2° 1019.6 hPa 0.9 m/s 28.3 mm
23:00 16.1° 1020.9 hPa 1.3 m/s 28.3 mm 16.1° 1020.9 hPa 1.3 m/s 28.3 mm
 06:41     20:33    Daglengte: 13:52 Zondag 21 Aug
02:00 14.6° 1020.6 hPa 0.9 m/s 28.3 mm 14.6° 1020.6 hPa 0.9 m/s 28.3 mm
05:00 13.7° 1019.5 hPa 0.9 m/s 28.3 mm 13.7° 1019.5 hPa 0.9 m/s 28.3 mm
08:00 15.8° 1019.1 hPa 1.0 m/s 28.3 mm 15.8° 1019.1 hPa 1.0 m/s 28.3 mm
11:00 21.8° 1017.8 hPa 1.1 m/s 28.3 mm 21.8° 1017.8 hPa 1.1 m/s 28.3 mm
14:00 26.2° 1015.6 hPa 1.0 m/s 28.3 mm 26.2° 1015.6 hPa 1.0 m/s 28.3 mm
17:00 26.7° 1014.2 hPa 0.4 m/s 28.3 mm 26.7° 1014.2 hPa 0.4 m/s 28.3 mm
20:00 20.8° 1015.7 hPa 2.6 m/s 28.3 mm 20.8° 1015.7 hPa 2.6 m/s 28.3 mm
23:00 18.5° 1015.5 hPa 0.7 m/s 28.3 mm 18.5° 1015.5 hPa 0.7 m/s 28.3 mm
 06:42     20:31    Daglengte: 13:49 Maandag 22 Aug
02:00 15.9° 1015.3 hPa 0.7 m/s 28.3 mm 15.9° 1015.3 hPa 0.7 m/s 28.3 mm
05:00 14.2° 1015.1 hPa 0.5 m/s 28.3 mm 14.2° 1015.1 hPa 0.5 m/s 28.3 mm
08:00 16.4° 1015.6 hPa 1.1 m/s 28.3 mm 16.4° 1015.6 hPa 1.1 m/s 28.3 mm
11:00 23.1° 1014.0 hPa 1.7 m/s 28.3 mm 23.1° 1014.0 hPa 1.7 m/s 28.3 mm
14:00 26.8° 1012.8 hPa 1.2 m/s 28.3 mm 26.8° 1012.8 hPa 1.2 m/s 28.3 mm
17:00 24.4° 1012.9 hPa 1.7 m/s 28.3 mm 24.4° 1012.9 hPa 1.7 m/s 28.3 mm
20:00 20.3° 1013.6 hPa 1.6 m/s 28.3 mm 20.3° 1013.6 hPa 1.6 m/s 28.3 mm
23:00 18.2° 1014.9 hPa 1.7 m/s 28.3 mm 18.2° 1014.9 hPa 1.7 m/s 28.3 mm
 06:43     20:29    Daglengte: 13:46 Dinsdag 23 Aug
02:00 17.9° 1015.2 hPa 0.9 m/s 28.3 mm 17.9° 1015.2 hPa 0.9 m/s 28.3 mm
05:00 17.6° 1015.1 hPa 1.2 m/s 28.3 mm 17.6° 1015.1 hPa 1.2 m/s 28.3 mm
08:00 17.5° 1016.0 hPa 0.4 m/s 28.4 mm 17.5° 1016.0 hPa 0.4 m/s 28.4 mm
11:00 22.1° 1015.7 hPa 0.6 m/s 28.7 mm 22.1° 1015.7 hPa 0.6 m/s 28.7 mm
14:00 25.0° 1014.4 hPa 0.6 m/s 29.1 mm 25.0° 1014.4 hPa 0.6 m/s 29.1 mm
17:00 25.8° 1013.6 hPa 1.9 m/s 29.3 mm 25.8° 1013.6 hPa 1.9 m/s 29.3 mm
20:00 21.8° 1014.8 hPa 2.0 m/s 29.3 mm 21.8° 1014.8 hPa 2.0 m/s 29.3 mm
23:00 17.9° 1016.1 hPa 0.9 m/s 29.3 mm 17.9° 1016.1 hPa 0.9 m/s 29.3 mm
 06:44     20:28    Daglengte: 13:44 Woensdag 24 Aug
02:00 17.3° 1015.7 hPa 0.6 m/s 29.3 mm 17.3° 1015.7 hPa 0.6 m/s 29.3 mm
05:00 16.7° 1015.5 hPa 0.4 m/s 29.3 mm 16.7° 1015.5 hPa 0.4 m/s 29.3 mm
08:00 18.3° 1015.5 hPa 0.6 m/s 29.3 mm 18.3° 1015.5 hPa 0.6 m/s 29.3 mm
11:00 25.5° 1014.4 hPa 1.0 m/s 29.3 mm 25.5° 1014.4 hPa 1.0 m/s 29.3 mm
14:00 30.0° 1012.8 hPa 1.2 m/s 29.3 mm 30.0° 1012.8 hPa 1.2 m/s 29.3 mm
20:00 22.0° 1013.6 hPa 1.9 m/s 30.4 mm 22.0° 1013.7 hPa 1.9 m/s 30.4 mm
 06:46     20:26    Daglengte: 13:40 Donderdag 25 Aug
02:00 18.4° 1016.5 hPa 1.3 m/s 35.9 mm 18.4° 1016.5 hPa 1.3 m/s 35.9 mm
08:00 18.6° 1017.7 hPa 0.8 m/s 36.0 mm 18.6° 1017.7 hPa 0.8 m/s 36.0 mm
14:00 27.8° 1016.6 hPa 1.1 m/s 36.2 mm 27.8° 1016.6 hPa 1.1 m/s 36.2 mm
20:00 23.1° 1016.8 hPa 2.2 m/s 36.3 mm 23.1° 1016.8 hPa 2.2 m/s 36.3 mm
 06:47     20:24    Daglengte: 13:37 Vrijdag 26 Aug
02:00 18.2° 1018.4 hPa 1.0 m/s 36.3 mm 18.2° 1018.4 hPa 1.0 m/s 36.3 mm
08:00 18.6° 1018.7 hPa 0.8 m/s 36.3 mm 18.6° 1018.7 hPa 0.9 m/s 36.3 mm
14:00 29.9° 1016.0 hPa 1.2 m/s 36.3 mm 29.9° 1016.0 hPa 1.2 m/s 36.3 mm
20:00 20.0° 1017.4 hPa 0.8 m/s 40.1 mm 20.0° 1017.4 hPa 0.8 m/s 40.1 mm
 06:48     20:22    Daglengte: 13:34 Zaterdag 27 Aug
02:00 17.9° 1018.2 hPa 0.2 m/s 40.4 mm 17.9° 1018.2 hPa 0.2 m/s 40.4 mm
08:00 18.5° 1018.9 hPa 0.9 m/s 0.6 mm
14:00 29.4° 1017.1 hPa 1.3 m/s 0.2 mm
20:00 23.2° 1017.6 hPa 1.2 m/s 0.6 mm
 06:50     20:20    Daglengte: 13:30 Zondag 28 Aug
02:00 18.2° 1019.5 hPa 1.1 m/s 0.4 mm
08:00 18.3° 1019.9 hPa 1.0 m/s 0.5 mm
14:00 30.0° 1018.3 hPa 0.9 m/s 0.2 mm
20:00 23.1° 1018.5 hPa 0.5 m/s 0.8 mm
 06:51     20:18    Daglengte: 13:27 Maandag 29 Aug
02:00 18.4° 1020.3 hPa 1.3 m/s 0.8 mm
08:00 18.4° 1020.7 hPa 1.1 m/s 0.6 mm
14:00 30.0° 1019.1 hPa 1.2 m/s 0.2 mm
20:00 23.1° 1019.0 hPa 0.7 m/s 0.9 mm
 06:52     20:16    Daglengte: 13:24 Dinsdag 30 Aug
02:00 18.5° 1020.5 hPa 1.1 m/s 1.3 mm
08:00 18.5° 1020.5 hPa 1.1 m/s 0.5 mm
14:00 29.9° 1018.5 hPa 1.2 m/s 0.3 mm
20:00 22.8° 1018.3 hPa 0.7 m/s 0.9 mm
 06:53     20:14    Daglengte: 13:21 Woensdag 31 Aug
02:00 18.3° 1019.7 hPa 1.1 m/s 0.7 mm
08:00 18.1° 1019.3 hPa 1.0 m/s 0.8 mm
14:00 27.1° 1017.9 hPa 1.3 m/s 1.1 mm
20:00 21.6° 1017.8 hPa 0.6 m/s 1.5 mm
 06:55     20:12    Daglengte: 13:17 Donderdag 01 Sep
02:00 17.5° 1019.0 hPa 0.9 m/s 0.6 mm
08:00 17.5° 1018.8 hPa 0.8 m/s 0.2 mm
FMI Hirlam - 7.5 km EWN WRFDA - 12 km DWD ICON - 7 km GFS - 25 km Basiskaart






























































Updatetijd (Europe/Amsterdam) Resolutie Lengte Stap
FMI Hirlam 07:15, 13:15, 19:15, 01:15 7.5 km 49h 1h
EWN WRFDA 10:15, 16:15, 22:15, 04:15 12 km 73h 1h
DWD ICON 11:45, 17:45, 23:45, 05:45 7 km 75h 1h
GFS 08:15, 14:15, 20:15, 02:15 25 km 237h 3h
30+ mm
25-30 mm
20-25 mm
15-20 mm
10-15 mm
6-10 mm
4-6 mm
2-4 mm
1-2 mm
0.5-1 mm
0.2-0.5 mm
0.1-0.2 mm
30+ mm
25-30 mm
20-25 mm
15-20 mm
10-15 mm
6-10 mm
4-6 mm
2-4 mm
1-2 mm
0.5-1 mm
0.2-0.5 mm
0.1-0.2 mm
Sneeuwval
Natte sneeuw
Hagel
Vorst
30+ mm
25-30 mm
20-25 mm
15-20 mm
10-15 mm
6-10 mm
4-6 mm
2-4 mm
1-2 mm
0.5-1 mm
0.2-0.5 mm
0.1-0.2 mm
Sneeuwval
Natte sneeuw
Hagel
Vorst
Onweer
50 mm
40 mm
30 mm
26 mm
22 mm
18 mm
14 mm
10 mm
9 mm
8 mm
7 mm
6 mm
5 mm
4.5 mm
4 mm
3.5 mm
3 mm
2.5 mm
2 mm
1.5 mm
1 mm
0.8 mm
0.6 mm
0.4 mm
0.2 mm
0.05 mm
35°
30°
25°
20°
15°
10°
-5°
-10°
-15°
-20°
-25°
-30°
-35°
33> m/s
29 m/s
25 m/s
21 m/s
17 m/s
14 m/s
11 m/s
8 m/s
5 m/s
3 m/s
0 m/s
2600 J/kg
2400 J/kg
2200 J/kg
2000 J/kg
1800 J/kg
1600 J/kg
1400 J/kg
1200 J/kg
1000 J/kg
800 J/kg
600 J/kg
400 J/kg
200 J/kg
70 dBZ
65 dBZ
60 dBZ
55 dBZ
50 dBZ
45 dBZ
40 dBZ
35 dBZ
30 dBZ
25 dBZ
20 dBZ
15 dBZ
10 dBZ
5 dBZ
-1 K
-2 K
-3 K
-4 K
-5 K
-6 K
-7 K
-8 K
-9 K
950 m²/s²
900 m²/s²
850 m²/s²
800 m²/s²
750 m²/s²
700 m²/s²
650 m²/s²
600 m²/s²
550 m²/s²
500 m²/s²
450 m²/s²
400 m²/s²
350 m²/s²
300 m²/s²
250 m²/s²
200 m²/s²
150 m²/s²
100 m²/s²
46 m/s
44 m/s
42 m/s
40 m/s
38 m/s
36 m/s
34 m/s
32 m/s
30 m/s
28 m/s
26 m/s
24 m/s
22 m/s
20 m/s
16 m/s
12 m/s
8 m/s
4 m/s
30 m/s
28 m/s
26 m/s
24 m/s
22 m/s
20 m/s
18 m/s
16 m/s
14 m/s
12 m/s
10 m/s
8 m/s
6 m/s
4 m/s
2 m/s
3.0
2.8
2.6
2.4
2.2
2.0
1.8
1.6
1.4
1.2
1.0
0.8
0.6
0.4
0.2
15
14
13
12
11
10
9
8
7
6
5
4
3
2
1
90%
80%
70%
60%
50%
40%
30%
20%
10%
42
40
38
36
34
32
30
28
26
24
22